RH
16 17 18 20 22 22 22 22 22 22 22 22 22 21 18 19 16 40 52 41 22 19 18 19 20 26 31 36 41 50 52 47 66
18 20 22 23 23 23 22 23 22 22 23 23 23 23 22 37 41 51 52 22 18 16 14 16 18 20 21 19 18 17 17 23 37
21 22 23 23 22 22 22 22 22 22 22 22 23 23 24 53 55 61 57 23 20 16 14 16 18 20 20 20 18 19 19 19 22
23 23 22 22 23 24 24 24 23 23 23 23 23 23 25 44 60 75 50 24 20 15 16 21 43 66 22 20 20 20 20 22 34
23 22 22 24 24 24 24 23 22 21 22 22 24 26 47 65 79 87 84 90 68 40 50 95 86 64 62 94 95 85 76 32 25
23 22 23 24 23 22 22 21 21 21 24 25 27 44 57 73 88 100 95 99 95 88 93 96 81 79 80 82 72 98 77 50 76
22 21 24 24 21 20 21 22 22 33 58 41 51 55 60 78 95 92 97 99 100 92 92 76 99 92 87 85 83 73 68 76 42
24 22 24 22 21 21 21 23 27 34 60 61 58 59 63 79 69 55 63 98 98 97 98 97 97 97 92 79 70 71 66 98 95
40 37 25 22 24 22 22 27 27 29 51 61 64 66 71 79 80 41 61 78 97 94 98 98 91 82 88 91 83 74 76 75 97
28 28 26 21 22 26 24 38 42 56 53 57 66 69 69 72 73 37 41 48 59 96 93 98 98 92 90 88 82 66 72 78 72
22 26 24 21 20 22 25 32 36 51 63 66 69 68 58 65 69 67 39 38 39 40 45 91 98 98 95 88 91 81 76 70 76
24 25 25 22 20 20 23 24 37 47 63 68 70 69 68 67 54 48 52 35 26 21 19 23 45 82 96 96 91 89 90 97 91
26 25 22 21 21 20 21 27 34 55 64 68 64 68 69 69 62 49 43 42 48 39 36 28 21 24 75 98 92 96 94 98 99
24 25 22 21 20 20 20 21 30 37 58 59 57 61 54 54 60 54 43 35 37 39 35 34 30 28 28 41 80 96 99 95 81
23 23 23 22 21 20 21 21 22 35 42 68 61 50 49 39 59 65 47 40 33 38 36 45 42 38 36 32 31 54 76 80 68
24 23 23 23 22 22 22 21 22 26 41 60 62 53 52 45 46 62 61 36 29 32 30 36 70 52 36 35 36 36 42 78 96
25 24 25 24 23 23 22 22 22 22 25 54 60 69 71 56 45 41 43 30 29 28 28 30 43 53 37 33 32 33 32 31 31
26 25 26 25 24 24 23 23 24 22 22 25 49 41 44 51 45 44 41 31 36 30 29 30 37 41 37 35 35 33 32 33 36
27 27 26 26 26 26 25 24 24 24 23 23 22 27 28 45 53 53 48 36 33 32 33 32 34 38 38 37 38 39 38 38 39
29 28 28 28 28 28 28 28 27 27 27 27 26 26 26 25 41 42 49 51 52 44 39 39 39 41 44 40 42 42 43 46 50
Wind_Speed
9 9 8 9 9 9 8 8 8 8 8 8 8 8 8 9 7 8 7 3 7 7 6 6 6 6 6 7 7 7 7 6 4
9 8 8 9 9 9 8 8 8 7 7 8 8 8 7 9 8 8 3 6 7 8 7 5 4 4 5 5 6 6 6 6 6
8 9 8 8 8 8 8 7 8 8 8 8 8 7 7 9 9 10 9 7 8 8 6 5 5 5 5 5 6 5 5 3 4
8 8 8 7 7 7 8 8 8 8 8 8 8 8 9 9 11 9 10 11 10 9 8 8 8 7 7 7 6 6 5 3 2
7 7 7 7 7 7 7 8 8 8 8 9 9 9 14 10 11 10 15 16 14 13 13 12 10 11 10 11 10 9 7 5 2
6 6 6 7 7 7 7 8 8 8 10 11 10 13 10 11 10 13 14 15 11 11 11 11 10 11 11 12 8 9 8 6 6
5 5 6 6 6 7 8 8 8 11 8 9 13 9 9 11 9 10 11 9 10 6 6 8 14 12 11 11 13 7 8 9 7
5 5 5 6 6 7 8 8 8 9 8 8 9 9 9 8 6 8 8 13 11 12 11 11 9 7 8 9 11 11 11 9 10
5 3 4 4 5 6 7 7 8 9 10 9 9 9 8 8 5 7 6 9 9 9 9 12 10 11 13 9 12 12 12 8 8
7 5 4 4 5 5 7 7 6 7 9 9 9 9 9 9 6 9 7 6 7 9 10 11 12 12 15 12 14 11 7 7 8
7 6 5 5 5 6 6 6 6 9 8 9 9 8 9 9 8 6 8 8 7 7 7 10 11 10 14 14 13 14 14 13 13
8 7 5 5 6 6 7 7 6 8 9 9 9 8 8 8 8 7 6 9 10 9 8 8 8 7 9 12 12 12 11 11 7
8 7 6 6 6 6 7 7 6 6 7 8 9 7 8 8 7 8 8 8 8 10 10 8 7 6 6 5 5 5 5 6 6
9 8 7 7 7 7 7 6 7 6 7 8 8 7 7 7 6 6 7 9 8 8 9 9 8 7 6 4 4 5 6 6 9
11 9 9 8 7 7 7 7 7 7 7 6 6 5 5 6 5 4 5 8 9 8 9 9 8 7 6 6 5 6 8 9 10
12 11 10 9 9 8 8 7 7 7 8 5 5 4 3 3 3 4 4 6 7 7 7 7 5 7 6 6 6 5 6 10 12
13 12 11 10 9 9 8 8 7 6 6 5 5 4 2 2 3 2 3 6 6 8 6 5 5 4 6 6 6 6 8 10 12
15 14 13 12 11 9 8 8 8 6 6 7 6 2 3 4 1 2 2 5 5 5 6 5 3 3 6 7 7 8 9 11 14
17 15 14 13 11 10 9 8 7 7 6 5 4 4 6 3 5 1 1 4 3 5 5 5 5 6 8 8 10 11 12 15 18
18 17 15 14 13 11 9 9 7 6 5 5 4 3 4 4 6 5 2 3 6 6 5 5 5 7 8 12 12 14 17 20 22
Wind_Direction
97 93 91 86 81 75 69 64 60 57 57 57 56 58 63 62 61 64 48 341 347 350 348 340 332 321 314 307 305 306 303 304 325
99 94 88 81 76 72 67 62 58 56 56 56 57 59 64 71 68 55 35 9 351 354 356 346 339 342 338 329 328 323 313 306 287
101 94 85 77 70 67 63 58 55 53 52 52 54 58 64 64 55 52 7 12 2 5 11 14 8 1 347 347 346 339 334 322 301
101 91 81 71 67 63 64 62 58 54 53 54 57 63 65 64 68 53 43 38 34 34 41 42 41 34 14 12 7 354 347 350 353
102 95 82 70 66 66 64 63 61 60 58 59 64 75 73 65 59 47 56 48 45 49 56 60 45 43 42 39 27 19 15 353 338
105 89 80 72 72 70 67 68 69 71 66 65 67 69 68 73 72 82 77 71 61 62 65 66 54 53 46 29 13 21 9 349 17
113 96 81 78 72 71 71 72 76 67 57 53 61 72 77 78 75 112 98 67 51 73 60 77 62 54 39 28 29 21 5 15 10
123 101 83 75 71 71 75 73 82 92 82 75 79 86 82 74 69 100 98 79 70 63 63 59 68 62 40 17 6 1 14 45 37
139 132 102 82 77 78 86 83 88 88 94 89 85 86 85 86 39 89 93 88 78 65 71 63 62 56 32 24 18 31 42 56 50
159 147 127 109 101 98 96 95 89 93 91 91 90 89 84 83 53 71 77 77 73 75 62 65 77 64 40 35 34 39 53 50 42
165 154 141 126 115 110 109 110 106 101 101 97 86 76 80 83 87 53 60 56 47 39 50 61 58 83 56 46 40 49 52 51 51
170 163 154 140 127 117 112 105 108 119 111 105 101 95 80 70 73 81 68 45 48 43 40 40 58 78 94 60 60 65 70 74 71
177 170 161 150 138 127 120 109 116 119 114 115 107 99 95 82 70 69 63 58 42 40 40 40 42 42 103 109 75 64 47 24 14
181 179 166 159 149 137 126 116 124 129 134 121 121 117 104 83 83 68 53 48 45 37 40 41 42 42 39 40 53 34 26 354 345
186 182 175 166 156 144 135 124 129 140 135 128 122 119 110 89 105 71 40 25 35 40 39 34 38 37 41 36 27 25 22 12 1
188 187 180 173 164 157 148 135 129 139 133 123 122 113 100 83 83 80 53 24 32 39 29 43 56 19 41 32 31 22 18 22 16
194 189 185 181 171 164 156 149 141 139 153 173 167 160 83 14 108 79 59 26 37 24 33 33 49 39 14 17 17 13 8 4 359
197 193 190 185 179 172 162 159 154 148 138 162 163 170 146 160 73 100 77 32 10 12 11 22 25 359 352 352 352 351 352 351 349
199 196 193 189 185 177 168 164 159 155 147 137 146 170 160 158 153 28 353 352 10 5 358 355 347 339 331 326 330 329 330 332 333
201 199 196 191 190 183 173 167 165 161 156 153 150 138 126 125 141 139 132 13 335 339 341 340 329 327 314 314 315 317 320 321 322